BEIDOU-3 M25 (C47)

Last updated on Wed Aug 26 2026 00:04:16 GMT+0000 (Coordinated Universal Time)

1 61186U 24168B 26237.24530524 -.00000031 00000+0 00000+0 0 9991 2 61186 54.4086 299.8385 0004240 287.5536 110.2992 1.86230375 13071
UTC large
Height (km)
Speed (km/s)
/
Latitude / Longitude
Inclination (degrees)
Orbital Period (minutes)
Azimuth
Elevation
Range (km)
Doppler Factor

Next 0 passes for location: London (51.5072 / 0.1276)

No passes found over London.
BEIDOU-3 M25 (C47)